Theta_e
287 287 287 287 287 286 286 285 285 285 284 284 284 284 284 284 283 282 281 281 280 280 280 280 280 280 281 281 281 281 281 281 282 282 282 282 282 282 282 282 282 283
287 287 286 286 286 286 285 285 285 284 284 284 284 284 284 283 283 281 280 280 280 280 279 280 280 280 280 281 281 281 281 281 281 281 281 281 282 282 282 282 282 282
286 286 286 286 285 285 285 284 284 284 284 283 283 283 283 283 282 280 279 279 279 279 279 279 279 279 279 280 280 280 280 280 280 280 280 281 281 281 281 281 282 282
286 286 285 285 284 284 284 284 283 283 283 283 283 283 282 281 280 279 278 278 278 278 279 278 278 278 278 279 279 279 279 279 279 280 280 280 280 280 280 281 281 281
286 285 285 284 284 283 283 283 283 283 283 283 282 281 280 279 279 278 278 278 278 278 278 278 278 278 278 278 278 278 279 279 279 279 279 279 279 280 280 280 280 280
285 284 284 284 283 283 283 283 283 283 283 282 281 279 279 278 278 278 278 278 277 277 277 277 277 277 278 278 278 278 278 278 278 278 278 278 279 279 279 279 279 280
284 284 283 283 283 283 283 283 283 283 282 281 279 278 278 278 277 277 277 277 277 277 277 277 277 277 277 277 277 277 277 277 277 277 277 277 277 277 278 278 278 278
283 283 283 282 282 282 282 282 282 282 281 280 278 278 277 277 277 277 276 276 276 276 276 276 276 276 276 276 276 276 276 276 276 275 276 276 276 276 276 277 277 277
283 282 282 282 281 282 282 282 281 280 279 278 278 277 277 276 276 276 276 275 275 275 275 275 275 275 275 275 274 274 274 274 274 274 274 274 274 274 274 275 275 275
282 281 281 281 281 281 282 281 280 279 278 277 277 277 276 276 275 275 275 275 275 274 274 274 274 274 273 273 273 273 273 272 272 272 272 272 273 273 273 273 273 273
281 281 281 281 281 281 281 280 279 278 277 277 276 276 276 275 275 274 274 274 273 273 273 273 273 272 272 272 272 272 271 271 271 271 271 271 271 272 272 272 272 272
281 280 280 280 281 280 280 279 278 277 276 276 276 275 275 275 274 274 273 273 272 272 272 272 271 271 271 271 271 271 271 271 271 271 271 271 271 271 271 271 271 271
280 280 280 280 280 279 278 278 277 276 276 276 276 275 275 275 274 273 273 272 271 271 271 271 271 271 270 270 270 270 270 270 271 271 271 271 271 271 271 272 272 272
280 280 280 280 279 278 278 277 276 276 276 275 276 276 276 275 274 273 272 271 271 271 271 270 270 270 270 270 270 270 270 271 271 271 271 272 272 272 272 272 272 272
280 280 279 279 278 277 277 276 276 276 276 276 276 276 275 275 274 272 271 270 271 270 270 270 270 270 270 270 270 271 271 271 272 272 272 272 272 272 272 272 272 272
279 279 278 278 278 277 276 276 276 276 276 276 276 275 275 275 274 272 270 270 270 270 270 270 270 270 270 271 271 272 272 272 273 273 273 273 273 273 273 273 273 273
279 278 278 277 277 276 276 275 276 276 275 275 275 275 275 275 273 271 270 269 269 270 270 270 270 270 270 271 272 272 273 273 273 273 273 273 273 273 273 273 273 274
278 278 277 276 276 275 275 275 276 275 275 275 275 275 274 273 271 269 269 269 269 269 270 270 270 270 270 271 272 273 273 274 274 274 274 274 274 274 274 273 273 273
277 277 276 275 275 275 275 275 275 275 274 274 274 274 273 271 269 269 269 269 269 269 269 269 269 270 270 271 272 273 274 274 274 274 274 274 274 273 273 273 273 273
277 276 275 275 274 275 275 275 274 274 274 273 273 273 271 269 269 268 268 268 269 269 268 269 269 270 270 271 272 273 274 274 274 274 274 273 273 273 273 273 273 273
276 275 275 274 274 274 274 274 274 273 273 273 272 271 269 269 269 268 268 268 268 268 268 268 270 270 270 271 272 273 274 274 274 273 273 273 273 273 273 273 274 274
275 275 274 273 273 273 273 273 273 273 272 272 271 269 268 268 268 268 268 268 268 268 267 268 269 270 270 271 272 273 274 274 273 273 273 273 273 274 274 274 274 274
275 274 273 273 273 273 273 272 272 272 271 270 269 268 268 268 268 268 268 268 268 268 267 267 268 269 270 271 272 273 274 274 273 274 274 274 274 274 274 274 274 274
274 274 274 273 273 273 272 272 271 271 270 269 268 268 268 268 267 267 268 268 268 268 267 267 268 269 270 271 272 273 274 274 274 274 274 274 274 274 275 275 275 275
274 274 274 273 273 273 272 272 271 270 270 269 268 268 268 267 267 267 268 269 268 268 268 268 269 269 270 271 272 273 273 274 274 274 274 274 274 275 275 275 275 274
273 273 273 273 273 272 272 271 271 270 269 268 268 267 267 267 267 267 268 268 268 268 268 269 269 270 270 271 272 273 273 274 274 274 274 274 275 275 275 274 274 273
Wind_Speed
28 26 25 24 22 21 21 20 19 19 18 17 15 14 14 14 14 16 17 18 19 18 18 18 17 18 17 16 16 16 17 17 18 18 17 18 18 19 20 21 21 22
29 26 25 24 23 22 22 22 22 21 19 18 17 15 15 16 16 17 18 18 17 17 18 18 17 17 16 16 15 16 17 17 18 18 18 18 19 20 21 22 22 23
30 28 27 26 24 23 23 24 23 21 20 18 17 16 16 17 17 18 18 17 17 17 17 17 17 17 16 16 15 16 17 17 18 18 18 19 19 20 21 22 23 23
31 30 29 28 26 24 24 24 23 22 20 18 17 16 16 17 17 17 18 17 17 17 17 17 17 17 17 16 15 16 17 18 19 18 18 20 19 20 21 21 23 24
33 31 30 29 27 26 25 25 23 21 19 18 16 15 15 16 16 16 16 16 16 17 16 16 16 16 16 15 15 16 17 18 18 17 19 20 19 20 21 22 23 25
33 31 31 30 29 28 27 25 23 21 19 17 16 15 15 15 15 15 15 16 16 16 16 16 15 15 15 14 15 16 17 18 18 18 19 20 20 21 21 23 24 26
33 32 31 30 29 29 28 25 23 20 18 17 16 15 15 15 15 15 15 15 15 15 15 15 15 14 14 14 15 17 17 18 18 18 19 20 21 22 22 23 25 26
34 33 32 31 30 29 27 25 22 20 18 17 16 16 16 15 15 15 15 14 14 15 15 15 15 15 14 14 15 17 17 18 17 17 19 20 21 22 23 23 24 25
34 34 33 32 30 29 27 24 22 19 18 17 17 16 15 15 15 14 13 13 13 15 15 15 15 14 14 14 15 16 17 17 17 18 19 20 21 22 22 22 23 25
34 33 33 32 30 29 26 23 21 19 19 18 17 16 14 14 14 12 12 13 13 14 14 14 14 13 14 14 15 16 17 18 18 18 19 20 21 22 22 22 23 24
34 33 33 32 30 28 25 22 21 19 19 18 17 15 14 13 12 12 12 13 13 14 14 13 13 14 14 15 16 16 17 18 18 18 19 20 21 22 22 22 22 23
34 33 33 32 30 26 24 22 21 19 18 17 16 15 14 13 13 13 13 13 13 14 13 13 13 14 15 15 16 16 17 18 18 18 19 19 20 21 21 22 23 25
33 33 32 31 28 25 23 22 21 19 17 17 16 15 14 14 14 13 13 13 14 13 13 13 13 14 15 15 16 16 16 17 17 18 19 20 21 22 22 24 25 27
33 32 31 29 27 24 23 21 20 19 18 17 16 14 13 13 13 12 13 13 13 13 12 12 13 14 14 15 15 15 15 16 17 18 20 21 22 23 24 25 26 28
32 30 29 28 26 24 23 22 20 19 18 16 15 13 12 12 12 12 12 12 12 11 11 12 13 14 14 14 14 14 15 16 17 18 20 21 21 22 23 25 27 29
32 30 29 28 27 25 23 22 20 19 17 15 13 12 12 11 11 11 11 10 10 10 11 12 13 14 14 14 15 16 17 17 19 20 21 21 21 22 23 25 27 28
31 31 29 28 27 25 23 22 20 18 16 14 13 12 11 10 10 10 9 9 9 10 11 12 13 14 15 15 16 17 18 19 21 22 23 23 22 22 23 26 28 29
32 31 29 27 26 25 23 21 19 17 15 14 12 11 10 10 10 9 9 9 9 10 11 12 15 16 15 16 17 17 18 20 21 22 23 23 22 22 24 27 29 31
33 32 29 27 26 25 23 20 18 17 15 13 12 10 9 10 10 9 9 9 8 9 11 13 16 16 15 16 17 18 19 20 21 22 23 23 23 24 27 29 30 32
33 32 30 27 25 24 22 20 18 16 14 13 11 10 10 10 10 9 9 8 8 9 11 13 16 16 14 16 17 18 19 20 21 22 21 22 24 26 28 29 30 32
33 32 29 27 25 24 21 19 17 15 14 12 10 9 10 10 9 9 9 8 8 9 11 14 16 16 14 16 17 18 20 20 20 21 20 22 25 26 28 30 33 35
34 32 29 27 25 23 21 19 17 15 13 11 10 10 11 10 9 9 8 8 8 9 11 14 16 15 13 15 17 18 20 20 20 21 21 24 26 28 30 33 35 37
34 32 30 27 25 23 21 19 17 15 13 11 11 11 11 10 9 8 7 7 8 10 11 14 15 14 13 15 17 18 20 22 22 22 23 25 28 30 31 31 32 33
34 33 31 28 26 24 21 18 16 14 12 11 11 11 10 9 8 7 6 7 9 11 11 12 14 14 13 14 16 18 20 21 22 23 26 28 30 31 31 29 29 32
34 32 30 29 26 24 21 19 16 14 11 11 11 10 9 8 7 6 6 7 8 10 9 10 12 13 12 14 16 18 20 21 22 24 27 29 29 30 32 32 31 33
31 30 28 26 25 23 20 18 16 14 12 12 11 9 8 8 8 6 6 7 7 8 9 9 11 12 12 14 16 18 20 22 24 25 26 29 30 31 32 33 34 34
Wind_Direction
207 208 209 211 214 216 218 221 224 226 230 236 241 248 258 266 271 275 278 280 282 282 283 284 284 284 280 273 272 273 273 274 273 273 272 270 269 268 266 265 262 260
204 205 207 209 212 215 219 221 223 226 230 237 243 249 258 267 271 273 276 277 277 278 280 281 281 279 275 271 271 273 274 274 273 272 272 271 271 270 268 268 266 262
201 202 204 206 209 212 216 221 224 227 231 236 243 250 259 265 268 270 272 272 274 275 277 279 278 275 274 273 272 273 274 273 273 273 273 272 271 271 270 271 269 266
199 201 204 205 207 209 214 219 222 226 230 236 243 251 257 261 264 269 272 273 275 277 276 278 279 279 279 277 274 275 274 273 274 275 274 273 271 271 271 271 270 268
199 200 203 205 205 208 212 215 219 224 229 236 243 248 252 256 260 264 268 271 273 276 276 276 277 279 279 276 273 275 275 274 275 273 273 273 273 272 272 271 270 270
197 199 201 203 204 207 210 214 218 223 228 235 240 244 247 251 254 257 262 266 267 270 272 270 271 274 273 271 271 273 273 274 275 273 273 273 273 272 271 271 271 272
195 197 199 201 203 207 209 212 217 221 227 233 235 239 242 244 248 254 259 261 263 265 265 265 267 269 269 268 271 272 272 273 274 274 274 274 274 273 270 269 270 271
194 196 197 199 201 204 207 210 214 219 225 230 232 236 240 242 247 253 254 254 258 260 260 261 264 266 268 268 269 272 273 273 274 275 276 275 274 274 272 271 271 272
192 194 195 197 199 201 204 207 211 216 221 226 230 234 238 243 247 246 245 249 254 255 257 260 262 263 266 267 269 271 272 273 274 274 274 274 274 274 274 274 273 274
191 191 192 194 196 199 202 205 208 213 218 223 228 232 236 241 243 241 243 250 253 254 257 261 262 265 267 268 269 270 272 274 275 273 271 272 273 273 275 275 274 275
189 189 191 192 194 198 201 202 205 211 217 222 226 230 234 237 240 243 248 251 252 253 256 260 266 270 270 270 270 271 272 273 274 274 272 272 273 273 275 275 274 275
186 187 190 191 192 195 197 201 205 209 215 221 225 228 232 237 242 248 252 253 254 257 261 266 273 274 271 273 274 273 273 272 273 275 274 274 275 275 277 276 276 278
184 186 187 188 190 191 194 200 204 208 212 218 223 228 234 242 247 252 255 256 259 264 269 273 276 274 274 276 276 274 273 272 275 278 278 279 279 279 279 279 277 278
183 184 185 186 187 189 193 198 203 208 212 218 225 232 239 245 249 254 257 259 264 270 276 279 275 273 275 276 274 273 274 276 279 282 282 282 282 281 281 279 278 276
180 180 181 183 185 188 192 197 201 207 212 219 226 233 239 245 250 255 258 261 268 274 278 278 272 272 277 276 272 274 278 282 285 284 284 284 284 283 281 279 278 276
177 178 179 182 185 188 192 197 201 206 212 218 224 231 239 247 252 254 257 262 268 272 273 271 270 277 281 274 271 279 284 288 290 287 286 285 284 285 284 283 282 280
175 176 178 181 185 188 192 196 200 205 211 216 222 230 239 246 250 253 256 258 261 265 273 275 276 282 283 276 276 284 288 291 292 291 290 288 286 287 287 288 289 286
175 175 177 181 185 188 192 196 199 203 208 214 220 227 236 242 244 246 247 250 256 266 275 281 285 289 285 279 283 290 293 295 294 293 292 291 289 289 289 290 291 289
175 176 177 181 185 189 192 194 198 201 206 212 217 224 231 235 239 240 242 248 257 268 272 280 292 298 290 283 290 296 298 298 296 294 293 291 290 289 289 289 288 288
175 176 177 180 184 188 190 193 197 199 204 209 213 219 226 230 237 241 244 255 265 272 274 281 296 305 297 290 297 302 303 304 300 296 292 289 288 287 287 289 289 288
174 175 177 180 183 186 188 191 194 197 201 205 210 218 225 230 236 239 248 265 280 284 283 289 303 310 301 296 302 306 309 309 305 298 292 288 287 286 283 285 290 290
175 175 176 179 181 183 185 189 192 195 198 201 206 215 223 229 235 241 256 277 291 294 290 294 309 317 307 301 308 312 314 313 307 301 296 292 291 289 286 283 284 287
176 176 176 178 179 181 184 186 190 193 195 198 207 214 219 228 239 250 272 293 296 299 295 295 310 323 316 309 314 318 318 316 309 304 302 298 296 295 293 288 283 286
178 178 177 177 178 180 182 183 186 190 193 199 210 216 220 230 243 257 285 302 301 304 299 291 306 322 318 311 317 321 320 317 312 309 305 302 300 299 298 296 292 294
177 178 178 177 178 179 180 180 183 186 190 199 210 217 225 235 242 257 291 309 312 314 304 287 298 314 315 314 320 321 320 318 314 311 306 303 304 304 303 302 301 302
175 176 177 177 177 177 177 179 180 181 186 197 207 213 224 235 239 257 299 320 323 314 304 294 299 310 314 318 321 321 322 321 317 312 309 308 309 309 307 307 307 306